CW3138 Weather Reports


time (UTC)temp
C
wind
direction
speed
KPH
gust
KPH
rain 1hr
cm
rain 24hr
cm
rain mn
cm
humidity
%
barometer
mb
20260906123032 21 272 0.0 6.4 0.00 0.08 0.00 98 1009.1
20260906121531 21 264 1.6 6.4 0.00 0.08 0.00 99 1009.0
20260906120029 21 289 0.0 8.0 0.00 0.08 0.00 99 1009.0
20260906114528 21 258 0.0 1.6 0.00 1.60 0.00 100 1008.8
20260906113027 21 258 0.0 6.4 0.00 1.60 0.00 100 1008.5
20260906111527 21 241 0.0 0.0 0.00 1.60 0.00 100 1008.5
20260906110024 21 241 0.0 4.8 0.00 1.60 0.00 100 1008.0
20260906104525 21 240 3.2 6.4 0.00 1.60 0.00 100 1007.9
20260906103021 21 254 1.6 6.4 0.00 1.60 0.00 100 1007.9
20260906101521 21 232 0.0 0.0 0.00 1.60 0.00 100 1007.7
20260906100021 20 232 0.0 0.0 0.00 1.60 0.00 100 1007.7
20260906094522 20 232 0.0 6.4 0.00 1.60 0.00 100 1007.7
20260906093030 20 232 0.0 0.0 0.00 1.60 0.00 100 1007.7
20260906091517 20 232 0.0 0.0 0.00 1.60 0.00 100 1007.8
20260906090018 20 232 0.0 0.0 0.00 1.60 0.00 100 1007.8
20260906084517 20 232 0.0 0.0 0.00 1.60 0.00 100 1007.7
20260906083019 20 232 0.0 0.0 0.00 1.60 0.00 100 1007.7
20260906081520 20 232 0.0 0.0 0.00 1.60 0.00 100 1007.6
20260906080015 20 232 0.0 0.0 0.00 1.60 0.00 100 1007.6
20260906074513 20 232 0.0 0.0 0.00 1.60 0.00 100 1007.8
20260906073011 20 232 0.0 0.0 0.00 1.60 0.00 100 1007.5
20260906071510 20 232 0.0 0.0 0.00 1.60 0.00 100 1007.5
20260906070009 20 232 0.0 0.0 0.00 1.60 0.00 100 1007.6
20260906064514 20 232 0.0 0.0 0.00 1.60 0.00 100 1007.8
20260906063008 20 232 0.0 0.0 0.00 1.60 0.00 100 1007.6
20260906061507 21 232 0.0 0.0 0.00 1.60 0.00 100 1007.6
20260906060005 21 232 0.0 0.0 0.00 1.60 0.00 100 1007.7
20260906054503 21 232 0.0 0.0 0.00 1.60 0.00 100 1007.9
20260906053006 21 232 0.0 0.0 0.00 1.60 0.00 99 1007.9
20260906051602 21 232 0.0 0.0 0.00 1.60 0.00 99 1007.6
20260906050059 21 232 0.0 0.0 0.00 1.60 0.00 99 1007.5
20260906044558 21 232 0.0 0.0 0.00 1.60 0.00 99 1007.4
20260906043058 21 232 0.0 0.0 0.00 1.60 0.00 99 1007.3
20260906041556 21 232 0.0 0.0 0.00 1.60 0.00 99 1007.3
20260906040054 21 232 0.0 0.0 0.00 1.60 0.00 99 1007.5
20260906034553 21 232 0.0 0.0 0.00 1.60 1.60 99 1007.5
20260906033059 21 277 0.0 6.4 0.00 1.60 1.60 99 1007.6
20260906031557 21 227 0.0 0.0 0.00 1.60 1.60 99 1007.7
20260906030054 21 227 0.0 0.0 0.00 1.60 1.60 98 1007.8
20260906024552 21 227 0.0 0.0 0.00 1.60 1.60 98 1007.9
20260906023052 22 227 0.0 0.0 0.00 1.60 1.60 98 1007.9
20260906021557 22 227 0.0 0.0 0.00 1.60 1.60 98 1007.9
20260906020053 22 227 0.0 0.0 0.00 1.60 1.60 98 1007.8
20260906014552 22 227 0.0 0.0 0.00 1.60 1.60 98 1007.5
20260906013050 22 227 0.0 0.0 0.00 1.60 1.60 97 1007.3
20260906011602 22 227 0.0 0.0 0.00 1.60 1.60 97 1006.9
20260906010049 23 227 0.0 0.0 0.00 1.60 1.60 96 1006.8
20260906004548 23 227 0.0 0.0 0.00 1.60 1.60 96 1006.8
20260906003048 23 227 0.0 0.0 0.00 1.60 1.60 95 1006.7
20260906001551 23 227 0.0 0.0 0.00 1.60 1.60 94 1006.7
20260906000047 24 227 0.0 0.0 0.00 1.60 1.60 93 1006.8
20260905234547 25 227 0.0 0.0 0.00 1.60 1.60 91 1006.8
20260905233104 25 227 0.0 0.0 0.00 1.60 1.60 91 1006.8
20260905231552 26 227 0.0 0.0 0.00 1.60 1.60 87 1006.7
20260905230047 26 227 0.0 0.0 0.00 1.60 1.60 86 1006.9
20260905224605 27 227 0.0 0.0 0.00 1.60 1.60 84 1006.7
20260905223044 27 227 0.0 0.0 0.00 1.60 1.60 85 1006.8
20260905221544 27 227 0.0 0.0 0.00 1.60 1.60 86 1006.8
20260905220048 27 227 0.0 0.0 0.00 1.60 1.60 85 1007.0
20260905214542 27 227 0.0 0.0 0.00 1.60 1.60 83 1006.8
20260905213043 27 227 0.0 3.2 0.00 1.60 1.60 77 1006.8
20260905211541 28 240 4.8 9.7 0.00 1.60 1.60 72 1006.6
20260905210039 28 211 1.6 8.0 0.00 1.60 1.60 72 1006.5
20260905204539 28 239 4.8 9.7 0.00 1.60 1.60 76 1006.7
20260905203040 28 228 1.6 6.4 0.00 1.60 1.60 71 1006.8
20260905201535 28 28 0.0 0.0 0.00 1.60 1.60 75 1006.8
20260905200034 28 327 0.0 4.8 0.00 1.60 1.60 74 1007.2
20260905194533 28 101 0.0 8.0 0.00 1.96 1.60 72 1007.3
20260905193031 27 101 6.4 11.3 0.00 1.96 1.60 74 1007.3
20260905191529 27 82 0.0 6.4 0.00 1.96 1.60 78 1007.7
20260905190032 27 39 0.0 4.8 0.00 1.96 1.60 77 1007.9
20260905184527 27 13 1.6 6.4 0.00 1.98 1.60 78 1007.9
20260905183024 27 86 3.2 11.3 0.00 1.98 1.60 79 1008.1
20260905181524 27 27 3.2 11.3 0.00 1.98 1.60 79 1008.2
20260905180021 26 108 0.0 9.7 0.00 1.98 1.60 80 1008.3
20260905174531 26 96 1.6 12.9 0.00 1.98 1.60 79 1008.3
20260905173026 26 143 0.0 8.0 0.00 1.98 1.60 82 1008.4
20260905171515 26 82 4.8 11.3 0.00 1.98 1.60 83 1008.4
20260905170013 25 89 6.4 14.5 0.00 1.98 1.60 83 1008.5
20260905164512 25 81 9.7 17.7 0.00 1.98 1.60 85 1008.6
20260905163012 25 160 8.0 16.1 0.00 1.98 1.60 88 1008.9
20260905161507 24 9 0.0 12.9 0.00 1.98 1.60 87 1009.4
20260905160004 23 355 1.6 4.8 0.00 1.98 1.60 94 1009.4
20260905154501 22 259 0.0 0.0 0.00 1.98 1.60 97 1009.4
20260905153101 22 259 0.0 0.0 0.00 1.98 1.60 99 1009.3
20260905151559 22 250 1.6 6.4 0.00 1.98 1.60 100 1009.4
20260905150059 22 202 0.0 1.6 0.00 1.98 1.60 100 1008.5
20260905144559 22 287 3.2 9.7 0.00 1.98 1.60 100 1008.0
20260905143058 21 182 0.0 3.2 0.00 1.98 1.60 100 1008.3
20260905141623 21 82 4.8 9.7 0.00 1.98 1.60 100 1007.8
20260905140057 21 178 0.0 9.7 0.03 1.98 1.60 100 1008.7
20260905134556 21 103 1.6 8.0 0.03 1.98 1.60 100 1008.8
20260905133055 21 84 0.0 8.0 0.05 1.98 1.60 100 1008.8
20260905131608 21 138 0.0 0.0 0.05 1.98 1.60 100 1009.9
20260905130055 21 138 0.0 0.0 0.05 1.96 1.57 100 1009.4
20260905124553 21 138 0.0 4.8 1.02 1.96 1.57 99 1009.8